Home   Weather   Greater Sudbury   Past weeks

Flag for Canada Past Weather in Greater Sudbury, Ontario, Canada — Yesterday and Last 2 Weeks

Now
72 °F

Partly sunny.


Feels Like: 77 °F
Forecast: 53 / 74 °F
Wind: 8 mph from Northeast

Location: Sudbury

Current Time: Jul 28, 2017 at 3:10:46 pm

Latest Report: Jul 28, 2017 at 2:00 pm


Visibility: 20 mi

Pressure: 30.08 "Hg

Humidity: 47%

Dew Point: 50 °F

Location of Greater SudburyLocation

Past Weather in Greater Sudbury — Graph

°F

Greater Sudbury Temperature Yesterday

Maximum temperature yesterday: 75 °F (at 5:00 pm)
Minimum temperature yesterday: 55 °F (at 6:00 am)
Average temperature yesterday: 65 °F

High & Low Weather Summary for the Past Weeks

 TemperatureHumidityPressure
High82 °F (Jul 19, 5:00 pm)100% (Jul 15, 2:00 am)30.25 "Hg (Jul 15, 2:00 am)
Low46 °F (Jul 25, 5:00 am)30% (Jul 21, 4:00 pm)29.85 "Hg (Jul 20, 7:00 pm)
Average64 °F74%29.99 "Hg
* Reported Jul 13 2:00 pm — Jul 28 2:00 pm, Greater Sudbury. Weather by CustomWeather, © 2017

Note: Actual official high and low records may vary slightly from our data, if they occured in-between our weather recording intervals... More about our weather records

Advertising

Greater Sudbury Weather History for the Previous 24 Hours

Scroll right to see more
 ConditionsComfort  
Time TempWeatherWind HumidityBarometerVisibility
2:00 pm
Fri, Jul 28
72 °FPartly sunny.8 mph47%30.08 "Hg20 mi
1:00 pm72 °FBroken clouds.13 mph47%30.08 "Hg20 mi
12:00 pm70 °FScattered clouds.10 mph50%30.09 "Hg20 mi
11:00 am66 °FPassing clouds.12 mph52%30.10 "Hg20 mi
10:00 am64 °FPassing clouds.9 mph56%30.11 "Hg20 mi
9:00 am61 °FPassing clouds.7 mph63%30.12 "Hg20 mi
8:00 am59 °FScattered clouds.8 mph72%30.12 "Hg20 mi
7:00 am57 °FScattered clouds.7 mph77%30.11 "Hg20 mi
6:00 am55 °FScattered clouds.7 mph77%30.09 "Hg20 mi
5:00 am55 °FPassing clouds.7 mph77%30.08 "Hg15 mi
4:00 am55 °FPassing clouds.8 mph77%30.07 "Hg15 mi
3:00 am57 °FPassing clouds.10 mph77%30.06 "Hg15 mi
2:00 am59 °FPassing clouds.13 mph72%30.06 "Hg15 mi
1:00 am59 °FPassing clouds.8 mph77%30.05 "Hg15 mi
12:00 am61 °FPassing clouds.8 mph72%30.03 "Hg15 mi
11:00 pm
Thu, Jul 27
61 °FPassing clouds.7 mph77%30.01 "Hg15 mi
10:00 pm63 °FPassing clouds.7 mph68%30.01 "Hg15 mi
9:00 pm66 °FPassing clouds.8 mph60%30.00 "Hg20 mi
8:00 pm70 °FPassing clouds.8 mph53%29.98 "Hg20 mi
7:00 pm73 °FPassing clouds.10 mph47%29.98 "Hg20 mi
6:00 pm73 °FPassing clouds.12 mph44%29.97 "Hg20 mi
5:00 pm75 °FPassing clouds.15 mph44%29.97 "Hg20 mi
4:00 pm73 °FPassing clouds.9 mph50%29.97 "Hg20 mi
3:00 pm72 °FPassing clouds.10 mph57%29.97 "Hg20 mi
Weather by CustomWeather, © 2017

See weather overviewHow to use our weather pages